TimeEET,TemperatureF,Dew PointF,Humidity,Sea Level PressureIn,VisibilityMPH,Wind Direction,Wind SpeedMPH,Gust SpeedMPH,PrecipitationIn,Events,Conditions,WindDirDegrees,DateUTC
12:00 AM,55.4,37.4,51,30.01,-9999.0,NNW,11.5,-,N/A,,Clear,340,2013-12-29 22:00:00
1:00 AM,55.4,37.4,51,30.01,-9999.0,NNW,13.8,-,N/A,,Clear,340,2013-12-29 23:00:00
2:00 AM,55.4,37.4,51,30.01,-9999.0,NNW,11.5,-,N/A,,Clear,330,2013-12-30 00:00:00
3:00 AM,55.4,39.2,54,30.01,-9999.0,WNW,9.2,-,N/A,,Clear,290,2013-12-30 01:00:00
4:00 AM,55.4,39.2,54,30.01,-9999.0,West,11.5,-,N/A,,Clear,280,2013-12-30 02:00:00
5:00 AM,55.4,39.2,54,30.01,-9999.0,WNW,11.5,-,N/A,,Clear,290,2013-12-30 03:00:00
6:00 AM,57.2,39.2,51,30.01,-9999.0,WNW,6.9,-,N/A,,Clear,290,2013-12-30 04:00:00
7:00 AM,55.4,39.2,54,30.04,-9999.0,WNW,9.2,-,N/A,,Clear,290,2013-12-30 05:00:00
8:00 AM,59.0,41.0,51,30.04,-9999.0,NW,10.4,-,N/A,,Clear,310,2013-12-30 06:00:00
9:00 AM,66.2,41.0,40,30.04,6.2,WNW,10.4,-,N/A,,Partly Cloudy,300,2013-12-30 07:00:00
10:00 AM,68.0,41.0,37,30.04,6.2,NW,15.0,-,N/A,,Partly Cloudy,310,2013-12-30 08:00:00
11:00 AM,69.8,41.0,35,30.04,6.2,NW,17.3,-,N/A,,Partly Cloudy,310,2013-12-30 09:00:00
12:00 PM,71.6,39.2,31,30.01,6.2,NNW,15.0,-,N/A,,Partly Cloudy,330,2013-12-30 10:00:00
1:00 PM,73.4,41.0,31,29.95,6.2,North,16.1,-,N/A,,Partly Cloudy,350,2013-12-30 11:00:00
2:00 PM,75.2,48.2,38,29.95,6.2,NNE,11.5,-,N/A,,Partly Cloudy,20,2013-12-30 12:00:00
3:00 PM,75.2,48.2,38,29.95,6.2,NNE,11.5,-,N/A,,Partly Cloudy,30,2013-12-30 13:00:00
4:00 PM,69.8,48.2,46,29.95,6.2,NNE,8.1,-,N/A,,Scattered Clouds,20,2013-12-30 14:00:00
5:00 PM,68.0,50.0,52,29.95,6.2,NNE,4.6,-,N/A,,Scattered Clouds,20,2013-12-30 15:00:00
6:00 PM,66.2,51.8,60,29.98,6.2,North,5.8,-,N/A,,Scattered Clouds,360,2013-12-30 16:00:00
7:00 PM,64.4,51.8,64,30.01,6.2,NW,4.6,-,N/A,,Scattered Clouds,320,2013-12-30 17:00:00
8:00 PM,64,50,51,30.02,6,NW,6.9,,,,Partly Cloudy,310,2013-12-30 18:00:00
8:00 PM,64.4,50.0,59,30.01,6.2,NW,6.9,-,N/A,,Scattered Clouds,310,2013-12-30 18:00:00
9:00 PM,60.8,48.2,63,30.04,6.2,WNW,9.2,-,N/A,,Scattered Clouds,300,2013-12-30 19:00:00
10:00 PM,60.8,42.8,52,30.04,6.2,WNW,9.2,-,N/A,,Partly Cloudy,300,2013-12-30 20:00:00